Date String (YYYY-MM-DD hh:mm:ss) UTC,Instrument flags,absolute air pressure of the measurement (hPa),sample flow rate (lpm),inlet stack bypass flow (lpm),air temperature of the measurement (°C),ambient temperature measured by the external sensor (°C),aerosol sample conditioner tube jacket temperature (°C),OPC LED temperature (°C),internal box temperature (°C),relative humidity of the measurement (%),span deviation,mass concentration of particles derived from Lorenz-Mie calculation of OPC scattering (μg/m³),mass concentration of particles derived from Lorenz-Mie calculation of OPC scattering (μg/m³),mass concentration of particles derived from Lorenz-Mie calculation of OPC scattering (μg/m³)
DateTimeUTC,F1_M11,P_M11,Q1_M11,Q2_M11,T1_M11,T2_M11,T3_M11,T4_M11,T5_M11,U1_M11,ZSPAN_M11,X2_M11,X0_M11,X1_M11
2023-11-29 11:00:00,SystemResetWarning,0827.8,5.01,000.00,018.8,017.6,000.0,027.2,020.0,8.7,0000.0,0003.51,0006.60,0003.37
2023-11-29 11:01:00,SystemResetWarning,0827.8,5.01,000.00,018.8,017.7,000.0,027.2,020.0,9.2,0000.0,0003.61,0007.00,0003.43
2023-11-29 11:02:00,SystemResetWarning,0827.8,5.00,000.00,018.8,017.7,000.0,027.2,020.0,7.8,0000.0,0003.66,0007.26,0003.46
2023-11-29 11:03:00,SystemResetWarning,0827.8,5.00,000.00,018.8,017.7,000.0,027.2,020.0,8.2,0000.0,0003.68,0007.18,0003.49
2023-11-29 11:04:00,SystemResetWarning,0827.7,5.00,000.00,018.7,017.7,000.0,027.2,020.0,8.5,0000.0,0003.75,0007.28,0003.54
2023-11-29 11:05:00,SystemResetWarning,0827.7,4.98,000.00,018.7,017.7,000.0,027.2,020.0,8.8,0000.0,0003.79,0007.83,0003.58
2023-11-29 11:06:00,SystemResetWarning,0827.7,5.01,000.00,018.7,017.7,000.0,027.2,020.0,9.0,0000.0,0003.80,0007.92,0003.59
2023-11-29 11:07:00,SystemResetWarning,0827.7,5.01,000.00,018.7,017.6,000.0,027.2,020.0,9.3,0000.0,0003.82,0007.52,0003.61
2023-11-29 11:08:00,SystemResetWarning,0827.7,4.99,000.00,018.7,017.6,000.0,027.2,020.0,9.4,0000.0,0003.74,0007.28,0003.54
2023-11-29 11:09:00,SystemResetWarning,0827.7,4.99,000.00,018.7,017.6,000.0,027.2,020.0,9.6,0000.0,0003.67,0006.39,0003.47
2023-11-29 11:10:00,SystemResetWarning,0827.7,5.01,000.00,018.7,017.6,000.0,027.2,020.0,9.7,0000.0,0003.63,0006.23,0003.42
2023-11-29 11:11:00,SystemResetWarning,0827.7,5.01,000.00,018.7,017.6,000.0,027.2,020.0,9.6,0000.0,0003.56,0006.07,0003.35
2023-11-29 11:12:00,SystemResetWarning,0827.7,5.00,000.00,018.7,017.6,000.0,027.2,020.0,9.4,0000.0,0003.49,0005.82,0003.31
2023-11-29 11:13:00,SystemResetWarning,0827.6,4.99,000.00,018.7,017.6,000.0,027.2,020.0,9.1,0000.0,0003.47,0005.50,0003.32
2023-11-29 11:14:00,SystemResetWarning,0827.6,4.99,000.00,018.7,017.6,000.0,027.2,020.0,8.5,0000.0,0003.48,0005.51,0003.34
2023-11-29 11:15:00,SystemResetWarning,0827.6,5.00,000.00,018.7,017.6,000.0,027.2,020.0,7.8,0000.0,0003.50,0005.73,0003.35
2023-11-29 11:16:00,SystemResetWarning,0827.6,5.00,000.00,018.7,017.6,000.0,027.2,020.0,7.5,0000.0,0003.53,0005.22,0003.37
2023-11-29 11:17:00,SystemResetWarning,0827.6,5.00,000.00,018.7,017.6,000.0,027.2,020.0,7.2,0000.0,0003.59,0005.18,0003.41
2023-11-29 11:18:00,SystemResetWarning,0827.6,5.00,000.00,018.7,017.6,000.0,027.2,020.0,6.9,0000.0,0003.58,0005.20,0003.39
2023-11-29 11:19:00,SystemResetWarning,0827.6,5.00,000.00,018.7,017.6,000.0,027.2,020.0,6.7,0000.0,0003.65,0006.38,0003.44
2023-11-29 11:20:00,SystemResetWarning,0827.6,5.00,000.00,018.7,017.6,000.0,027.2,020.0,6.8,0000.0,0003.66,0006.57,0003.45
2023-11-29 11:21:00,SystemResetWarning,0827.6,5.00,000.00,018.7,017.6,000.0,027.2,020.0,7.0,0000.0,0003.59,0006.42,0003.40
2023-11-29 11:22:00,SystemResetWarning,0827.6,5.00,000.00,018.7,017.6,000.0,027.2,020.0,7.1,0000.0,0003.51,0006.25,0003.33
2023-11-29 11:23:00,SystemResetWarning,0827.5,5.00,000.00,018.7,017.5,000.0,027.2,020.0,7.1,0000.0,0003.41,0006.05,0003.22
2023-11-29 11:24:00,SystemResetWarning,0827.5,4.99,000.00,018.7,017.5,000.0,027.2,020.0,7.0,0000.0,0003.28,0006.12,0003.07
2023-11-29 11:25:00,SystemResetWarning,0827.5,5.01,000.00,018.7,017.5,000.0,027.2,020.0,7.0,0000.0,0003.14,0007.23,0002.81
2023-11-29 11:26:00,SystemResetWarning,0827.6,5.00,000.00,018.7,017.5,000.0,027.2,020.0,7.1,0000.0,0002.89,0006.69,0002.57
2023-11-29 11:27:00,SystemResetWarning,0827.5,5.00,000.00,018.7,017.5,000.0,027.2,020.0,7.2,0000.0,0002.60,0006.19,0002.33
2023-11-29 11:28:00,SystemResetWarning,0827.5,5.00,000.00,018.7,017.5,000.0,027.2,020.0,7.5,0000.0,0002.33,0005.78,0002.10
2023-11-29 11:29:00,SystemResetWarning,0827.6,4.99,000.00,018.7,017.5,000.0,027.2,020.0,7.5,0000.0,0002.12,0005.50,0001.93
2023-11-29 11:30:00,SystemResetWarning,0827.4,5.00,000.00,018.7,017.5,000.0,027.2,020.0,7.7,0000.0,0001.97,0004.30,0001.76
2023-11-29 11:31:00,SystemResetWarning,0827.4,5.00,000.00,018.7,017.5,000.0,027.2,020.0,7.4,0000.0,0001.88,0004.02,0001.67
2023-11-29 11:32:00,SystemResetWarning,0827.4,5.00,000.00,018.7,017.5,000.0,027.2,020.0,7.1,0000.0,0001.83,0003.96,0001.64
2023-11-29 11:33:00,SystemResetWarning,0827.4,5.00,000.00,018.7,017.5,000.0,027.2,020.0,7.2,0000.0,0001.83,0003.94,0001.64
2023-11-29 11:34:00,SystemResetWarning,0827.4,5.00,000.00,018.7,017.6,000.0,027.2,020.0,7.1,0000.0,0001.89,0004.00,0001.71
2023-11-29 11:35:00,SystemResetWarning,0827.4,5.01,000.00,018.7,017.6,000.0,027.2,020.0,7.1,0000.0,0001.99,0003.81,0001.79
2023-11-29 11:36:00,SystemResetWarning,0827.4,5.01,000.00,018.7,017.6,000.0,027.2,020.0,7.3,0000.0,0002.11,0002.61,0001.91
2023-11-29 11:37:00,SystemResetWarning,0827.4,5.00,000.00,018.7,017.6,000.0,027.2,020.0,7.4,0000.0,0002.16,0002.87,0001.95
2023-11-29 11:38:00,SystemResetWarning,0827.4,5.00,000.00,018.7,017.6,000.0,027.2,020.0,7.2,0000.0,0002.19,0003.00,0001.96
2023-11-29 11:39:00,SystemResetWarning,0827.4,5.00,000.00,018.7,017.5,000.0,027.2,020.0,7.0,0000.0,0002.21,0003.05,0001.97
2023-11-29 11:40:00,SystemResetWarning,0827.4,5.00,000.00,018.7,017.5,000.0,027.2,020.0,6.9,0000.0,0002.21,0003.07,0001.97
2023-11-29 11:41:00,SystemResetWarning,0827.3,5.00,000.00,018.7,017.5,000.0,027.2,020.0,6.8,0000.0,0002.21,0003.27,0001.97
2023-11-29 11:42:00,SystemResetWarning,0827.3,5.00,000.00,018.7,017.5,000.0,027.2,020.0,6.8,0000.0,0002.20,0003.37,0001.97
2023-11-29 11:43:00,SystemResetWarning,0827.2,5.00,000.00,018.7,017.5,000.0,027.2,020.0,6.8,0000.0,0002.25,0003.46,0002.00
2023-11-29 11:44:00,SystemResetWarning,0827.2,5.00,000.00,018.7,017.5,000.0,027.2,020.0,6.7,0000.0,0002.27,0003.51,0001.99
2023-11-29 11:45:00,SystemResetWarning,0827.2,5.01,000.00,018.7,017.5,000.0,027.2,020.0,6.8,0000.0,0002.19,0003.47,0001.91
2023-11-29 11:46:00,SystemResetWarning,0827.2,4.99,000.00,018.7,017.5,000.0,027.2,020.0,6.8,0000.0,0002.12,0003.46,0001.83
2023-11-29 11:47:00,SystemResetWarning,0827.2,4.99,000.00,018.7,017.5,000.0,027.2,020.0,6.9,0000.0,0002.00,0003.36,0001.71
2023-11-29 11:48:00,SystemResetWarning,0827.2,5.00,000.00,018.7,017.5,000.0,027.2,020.0,7.0,0000.0,0001.89,0003.07,0001.61
2023-11-29 11:49:00,SystemResetWarning,0827.1,5.00,000.00,018.7,017.5,000.0,027.2,020.0,7.0,0000.0,0001.81,0002.87,0001.52
2023-11-29 11:50:00,SystemResetWarning,0827.2,5.01,000.00,018.7,017.4,000.0,027.2,020.0,6.9,0000.0,0001.71,0002.73,0001.44
2023-11-29 11:51:00,SystemResetWarning,0827.1,5.01,000.00,018.7,017.4,000.0,027.2,020.0,6.8,0000.0,0001.62,0002.62,0001.36
2023-11-29 11:52:00,SystemResetWarning,0827.2,5.01,000.00,018.7,017.4,000.0,027.2,020.0,6.8,0000.0,0001.51,0002.29,0001.27
2023-11-29 11:53:00,SystemResetWarning,0827.2,5.01,000.00,018.7,017.5,000.0,027.2,020.0,7.0,0000.0,0001.42,0002.04,0001.18
2023-11-29 11:54:00,SystemResetWarning,0827.1,4.99,000.00,018.7,017.5,000.0,027.2,020.0,7.4,0000.0,0001.29,0001.85,0001.08
2023-11-29 11:55:00,SystemResetWarning,0827.1,4.99,000.00,018.6,017.5,000.0,027.2,020.0,7.6,0000.0,0001.21,0001.76,0001.02
2023-11-29 11:56:00,SystemResetWarning,0827.1,5.01,000.00,018.7,017.5,000.0,027.2,020.0,7.8,0000.0,0001.18,0001.75,0000.98
2023-11-29 11:57:00,SystemResetWarning,0827.1,5.01,000.00,018.7,017.4,000.0,027.2,020.0,7.7,0000.0,0001.12,0001.58,0000.96
2023-11-29 11:58:00,SystemResetWarning,0827.1,5.00,000.00,018.7,017.4,000.0,027.2,020.0,7.6,0000.0,0001.13,0001.61,0000.98
2023-11-29 11:59:00,SystemResetWarning,0827.1,5.00,000.00,018.7,017.4,000.0,027.2,020.0,7.8,0000.0,0001.19,0001.73,0001.03
